Weather History for Martha's Vineyard, MA

Change the Weather History Date:

Friday, March 15, 2013

  Actual Average Record
Temperature  
Mean Temperature 31 °F -  
Max Temperature 39 °F 44 °F 56 °F (1983)
Min Temperature 23 °F 30 °F 14 °F (1993)
Degree Days  
Heating Degree Days 34    
Moisture  
Dew Point 16 °F    
Average Humidity 53    
Maximum Humidity 73    
Minimum Humidity 33    
Precipitation  
Precipitation 0.00 in - - ()
Sea Level Pressure  
Sea Level Pressure 29.79 in    
Wind  
Wind Speed 13 mph (WNW)    
Max Wind Speed 20 mph    
Max Gust Speed 32 mph    
Visibility 10 miles    
Events      
Averages and records for this station are not official NWS values.
T = Trace of Precipitation, MM = Missing Value Source: NWS Daily Summary

Daily Weather History Graph

Daily Weather History Graph

Search for Another Location

Airport:

Trip Planner

Search our weather history database for the weather conditions in past years. The results will help you decide how hot, cold, wet, or windy it might be!

Date:

Astronomy

Mar. 15, 2013 Rise Set
Actual Time 6:53 AM EDT 6:49 PM EDT
Civil Twilight 6:26 AM EDT 7:16 PM EDT
Nautical Twilight 5:54 AM EDT 7:49 PM EDT
Astronomical Twilight 5:21 AM EDT 8:21 PM EDT
Moon 8:39 AM EDT (3/15) 11:03 PM EDT (3/15)
Length of Visible Light 12h 50m
Length of Day
11h 55m
Waxing Crescent, 15% of the Moon is Illuminated
Mar 15
Waxing Crescent
Mar 19
First Quarter
Mar 27
Full
Apr 3
Last Quarter
Apr 10
New

Hourly Weather History & Observations

Time (EDT) Temp. Windchill Dew Point Humidity Pressure Visibility Wind Dir Wind Speed Gust Speed Precip Events Conditions
12:53 AM 25.0 °F 14.8 °F 9.0 °F 51% 29.84 in 10.0 mi NW 10.4 mph 19.6 mph N/A   Scattered Clouds
1:53 AM 25.0 °F 15.5 °F 10.0 °F 53% 29.85 in 10.0 mi NW 9.2 mph 18.4 mph N/A   Partly Cloudy
2:53 AM 25.0 °F 10.9 °F 10.0 °F 53% 29.84 in 10.0 mi NW 19.6 mph 32.2 mph N/A   Clear
3:53 AM 26.1 °F 12.7 °F 10.9 °F 53% 29.83 in 10.0 mi NW 18.4 mph 28.8 mph N/A   Scattered Clouds
4:53 AM 25.0 °F 14.2 °F 10.9 °F 55% 29.84 in 10.0 mi NNW 11.5 mph 19.6 mph N/A   Overcast
5:53 AM 24.1 °F 12.0 °F 10.9 °F 57% 29.86 in 10.0 mi NNW 13.8 mph - N/A   Scattered Clouds
6:53 AM 23.0 °F 12.4 °F 10.9 °F 60% 29.87 in 10.0 mi NNW 10.4 mph - N/A   Clear
7:53 AM 25.0 °F 14.8 °F 12.0 °F 58% 29.88 in 10.0 mi NW 10.4 mph - N/A   Clear
8:53 AM 28.0 °F 17.5 °F 10.9 °F 49% 29.88 in 10.0 mi NW 12.7 mph 19.6 mph N/A   Clear
9:53 AM 30.0 °F 19.5 °F 10.0 °F 43% 29.87 in 10.0 mi NW 13.8 mph 24.2 mph N/A   Clear
10:53 AM 32.0 °F 22.5 °F 9.0 °F 38% 29.86 in 10.0 mi WNW 12.7 mph 23.0 mph N/A   Clear
11:53 AM 34.0 °F 24.6 °F 9.0 °F 35% 29.85 in 10.0 mi West 13.8 mph 21.9 mph N/A   Clear
12:53 PM 34.0 °F 23.0 °F 8.1 °F 34% 29.83 in 10.0 mi West 18.4 mph 21.9 mph N/A   Mostly Cloudy
1:53 PM 37.0 °F 29.3 °F 10.0 °F 33% 29.79 in 10.0 mi West 11.5 mph 20.7 mph N/A   Clear
2:53 PM 37.0 °F 28.5 °F 14.0 °F 39% 29.75 in 10.0 mi WSW 13.8 mph 23.0 mph N/A   Clear
3:53 PM 37.0 °F 27.7 °F 19.0 °F 48% 29.73 in 10.0 mi SW 16.1 mph 24.2 mph N/A   Overcast
4:53 PM 37.9 °F 28.9 °F 21.9 °F 53% 29.70 in 10.0 mi WSW 16.1 mph 31.1 mph N/A   Scattered Clouds
5:53 PM 37.9 °F 30.0 °F 26.1 °F 62% 29.70 in 10.0 mi WSW 12.7 mph 23.0 mph N/A   Clear
6:53 PM 37.9 °F 28.2 °F 27.0 °F 65% 29.70 in 10.0 mi WSW 18.4 mph 27.6 mph N/A   Mostly Cloudy
7:53 PM 37.9 °F 30.9 °F 28.9 °F 70% 29.70 in 10.0 mi WSW 10.4 mph 21.9 mph N/A   Mostly Cloudy
8:53 PM 37.9 °F 32.1 °F 28.0 °F 68% 29.70 in 10.0 mi West 8.1 mph 17.3 mph N/A   Partly Cloudy
9:53 PM 39.0 °F 32.8 °F 28.0 °F 65% 29.70 in 10.0 mi West 9.2 mph 17.3 mph N/A   Overcast
10:53 PM 37.9 °F 30.9 °F 30.0 °F 73% 29.70 in 10.0 mi West 10.4 mph 17.3 mph N/A   Scattered Clouds
11:53 PM 37.9 °F 30.9 °F 28.0 °F 68% 29.70 in 10.0 mi West 10.4 mph - N/A   Clear